Skip Page Navigation
NASA JPL Caltech
NASA Logo - Jet Propulsion Laboratory + View the NASA Portal
+ Near-Earth Object (NEO) Program
Search JPL
JPL Home Earth Solar System Stars & Galaxies Technology
JPL Solar System Dynamics
BODIES ORBITS EPHEMERIDES TOOLS PHYSICAL DATA DISCOVERY FAQ SITE MAP
JPL Small-Body Database Browser
Search: [ help ]  
4923 Clarke (1981 EO27)
Classification: Main-belt Asteroid          SPK-ID: 2004923
Ephemeris | Orbit Diagram | Orbital Elements | Physical Parameters | Discovery Circumstances | Close-Approach Data ]

[ show orbit diagram ]
Orbital Elements at Epoch 2457000.5 (2014-Dec-09.0) TDB
Reference: JPL 12 (heliocentric ecliptic J2000)
 Element Value Uncertainty (1-sigma)   Units 
e .2017110083805956 5.9057e-08  
a 2.145419824157162 1.1163e-08 AU
q 1.7126650280267 1.2507e-07 AU
i 6.670106010671596 6.4523e-06 deg
node 188.558548237534 4.0025e-05 deg
peri 108.4068775907489 4.411e-05 deg
M 171.3964288864672 1.5196e-05 deg
tp 2456454.030246778043
(2013-Jun-10.53024678)
4.9454e-05 JED
period 1147.801692474105
3.14
8.9581e-06
2.453e-08
d
yr
n .313643029419145 2.4479e-09 deg/d
Q 2.578174620287623 1.3414e-08 AU
  Orbit Determination Parameters
   # obs. used (total)      1271  
   data-arc span      15420 days (42.22 yr)  
   first obs. used      1972-07-13  
   last obs. used      2014-10-01  
   planetary ephem.      DE431  
   SB-pert. ephem.      SB431-BIG16  
   condition code      0  
   fit RMS      .5203  
   data source      ORB  
   producer      Otto Matic  
   solution date      2014-Oct-09 14:02:33  

Additional Information
 Earth MOID = .712919 AU 
 T_jup = 3.675 
[ show covariance matrix ]

Ephemeris | Orbit Diagram | Orbital Elements | Physical Parameters | Discovery Circumstances | Close-Approach Data ]

Physical Parameter Table
Parameter Symbol Value Units Sigma Reference Notes
absolute magnitude H 14.3 mag n/a MPO267727  
rotation period rot_per 3.1787 h n/a Asteroid Lightcurve DataBase (Rev. 2014-Mar-01) Result based on less than full coverage, so that the period may be wrong by 30 percent or so.
Published Reference List:
[Pravec, P.; Wolf, M.; Sarounova, L. (2013) http://www.asu.cas.cz/~ppravec/neo.htm]
SMASSII spectral type spec_B S   n/a EAR-A-5-DDR-TAXONOMY-V4.0 based on a high-resolution spectrum by Xu et al. (1995) or Bus and Binzel (2002)

4923 Clarke (1981 EO27)          Discovered 1981-Mar-02 by Bus, S. J. at Siding Spring (413)
Reference: DISCOVERY.DBLast Updated: 2003-08-29

[ show close-approach data ]
Alternate Designations
 1981 EO27 = 1972 NJ 
Ephemeris | Orbit Diagram | Orbital Elements | Physical Parameters | Discovery Circumstances | Close-Approach Data ]
ABOUT SSD CREDITS/AWARDS PRIVACY/COPYRIGHT GLOSSARY LINKS
FirstGov 2014-Nov-27 05:25 UT
(server date/time)  
NASA Home Page
Site Manager:   Donald K. Yeomans
Webmaster  Alan B. Chamberlin